Location: Crescent
(42.8242°N, 73.7329°W)
Time: 15:51:20
(UTC+00:00)

Explorer 11/Cluster Stage 4 - Pass Details

Date: 25 February 2026
Orbit: 463 x 1176 km, 28.8° (Epoch: 9 March)

Event Time Altitude Azimuth Distance (km) Brightness Sun altitude
Rises 15:17:39 0° 233° (SW) 3,631 10.0 32.5°
Reaches altitude 10° 15:21:24 10° 215° (SW) 2,533 9.6 32.8°
Maximum altitude 15:25:09 17° 176° (S) 1,915 9.8 33.2°
Drops below altitude 10° 15:28:31 10° 137° (SE) 2,212 10.2 33.5°
Sets 15:31:29 0° 116° (ESE) 2,990 10.3 33.8°
